Date String (YYYY-MM-DD hh:mm:ss) UTC,Instrument flags,Ambient pressure (hPa),Sample flow (lpm),Bypass flow (lpm),Sample temperature (°C),Ambient temperature (°C),ASC tube jacket temperature (°C),LED temperature (°C),Box temperature (°C),Sample RH (%),Span deviation,Mass concentration (μg/m³),Mass concentration (μg/m³),Mass concentration (μg/m³)
DateTimeUTC,F1_M11,P_M11,Q1_M11,Q2_M11,T1_M11,T2_M11,T3_M11,T4_M11,T5_M11,U1_M11,ZSPAN_M11,X0_M11,X2_M11,X1_M11
2021-11-20 03:00:00,,0824.2,4.99,0.00,26.9,26.1,00.0,35.9,28.7,10.9,0000.0,0007.97,0004.07,0003.59
2021-11-20 03:01:00,,0824.1,5.00,0.00,26.9,26.1,00.0,35.9,28.7,10.9,0000.0,0007.89,0004.03,0003.58
2021-11-20 03:02:00,,0824.1,5.00,0.00,26.9,26.1,00.0,35.9,28.7,10.9,0000.0,0007.87,0004.01,0003.56
2021-11-20 03:03:00,,0824.1,5.00,0.00,26.9,26.2,00.0,35.9,28.7,10.8,0000.0,0007.11,0004.00,0003.56
2021-11-20 03:04:00,,0824.2,5.00,0.00,26.9,26.2,00.0,35.9,28.7,10.8,0000.0,0006.92,0004.00,0003.57
2021-11-20 03:05:00,,0824.2,5.00,0.00,27.0,26.2,00.0,35.9,28.8,10.8,0000.0,0006.69,0003.99,0003.56
2021-11-20 03:06:00,,0824.2,4.99,0.00,27.0,26.2,00.0,35.9,28.8,10.7,0000.0,0006.46,0003.98,0003.57
2021-11-20 03:07:00,,0824.2,5.01,0.00,27.0,26.2,00.0,35.9,28.8,10.7,0000.0,0006.44,0003.96,0003.57
2021-11-20 03:08:00,,0824.3,4.99,0.00,27.0,26.2,00.0,35.9,28.8,10.8,0000.0,0006.40,0003.96,0003.57
2021-11-20 03:09:00,,0824.3,4.99,0.00,27.0,26.2,00.0,35.9,28.8,10.9,0000.0,0006.36,0003.92,0003.55
2021-11-20 03:10:00,,0824.3,5.00,0.00,27.0,26.2,00.0,36.0,28.8,10.9,0000.0,0006.20,0003.91,0003.56
2021-11-20 03:11:00,,0824.2,5.00,0.00,27.0,26.2,00.0,36.0,28.8,10.8,0000.0,0006.19,0003.91,0003.55
2021-11-20 03:12:00,,0824.2,5.00,0.00,27.0,26.2,00.0,36.0,28.8,10.8,0000.0,0006.26,0003.92,0003.55
2021-11-20 03:13:00,,0824.2,5.00,0.00,27.0,26.1,00.0,36.0,28.8,10.9,0000.0,0006.25,0003.90,0003.54
2021-11-20 03:14:00,,0824.3,4.99,0.00,27.0,26.1,00.0,36.0,28.7,10.9,0000.0,0006.17,0003.89,0003.53
2021-11-20 03:15:00,,0824.2,5.01,0.00,26.9,26.1,00.0,36.0,28.7,10.9,0000.0,0006.17,0003.88,0003.51
2021-11-20 03:16:00,,0824.3,4.98,0.00,27.0,26.1,00.0,36.0,28.7,10.8,0000.0,0005.94,0003.86,0003.51
2021-11-20 03:17:00,,0824.3,4.99,0.00,27.0,26.1,00.0,36.0,28.7,10.8,0000.0,0006.05,0003.87,0003.50
2021-11-20 03:18:00,,0824.2,5.01,0.00,27.0,26.1,00.0,36.0,28.7,10.8,0000.0,0006.18,0003.88,0003.50
2021-11-20 03:19:00,,0824.2,5.01,0.00,27.0,26.1,00.0,36.0,28.7,10.8,0000.0,0006.15,0003.86,0003.50
2021-11-20 03:20:00,,0824.2,5.00,0.00,27.0,26.1,00.0,36.0,28.7,10.9,0000.0,0006.02,0003.85,0003.49
2021-11-20 03:21:00,,0824.2,5.01,0.00,27.0,26.1,00.0,36.0,28.7,10.8,0000.0,0005.96,0003.84,0003.48
2021-11-20 03:22:00,,0824.1,5.00,0.00,27.0,26.1,00.0,36.0,28.7,10.7,0000.0,0006.07,0003.84,0003.47
2021-11-20 03:23:00,,0824.1,4.99,0.00,27.0,26.1,00.0,36.0,28.8,10.5,0000.0,0006.34,0003.84,0003.47
2021-11-20 03:24:00,,0824.1,5.00,0.00,27.0,26.1,00.0,36.0,28.7,10.5,0000.0,0006.84,0003.84,0003.46
2021-11-20 03:25:00,,0824.1,5.00,0.00,27.0,26.1,00.0,36.0,28.7,10.4,0000.0,0007.69,0003.83,0003.45
2021-11-20 03:26:00,,0824.1,5.00,0.00,27.0,26.1,00.0,36.0,28.8,10.4,0000.0,0008.33,0003.82,0003.44
2021-11-20 03:27:00,,0824.1,5.00,0.00,27.0,26.2,00.0,36.0,28.8,10.4,0000.0,0008.50,0003.82,0003.43
2021-11-20 03:28:00,,0824.0,4.99,0.00,27.0,26.2,00.0,36.0,28.8,10.4,0000.0,0008.44,0003.80,0003.41
2021-11-20 03:29:00,,0824.1,5.01,0.00,27.0,26.2,00.0,36.0,28.8,10.5,0000.0,0008.27,0003.75,0003.39
2021-11-20 03:30:00,,0824.1,4.99,0.00,27.0,26.2,00.0,36.0,28.8,10.6,0000.0,0008.26,0003.73,0003.38
2021-11-20 03:31:00,,0824.0,5.00,0.00,27.0,26.2,00.0,36.0,28.8,10.6,0000.0,0008.32,0003.75,0003.39
2021-11-20 03:32:00,,0824.1,5.00,0.00,27.0,26.2,00.0,36.0,28.8,10.7,0000.0,0008.35,0003.77,0003.41
2021-11-20 03:33:00,,0824.1,5.00,0.00,27.0,26.2,00.0,36.0,28.8,10.7,0000.0,0008.34,0003.78,0003.42
2021-11-20 03:34:00,,0824.1,5.00,0.00,27.0,26.2,00.0,36.0,28.8,10.8,0000.0,0008.36,0003.82,0003.44
2021-11-20 03:35:00,,0824.1,5.00,0.00,27.0,26.1,00.0,36.0,28.8,10.9,0000.0,0008.04,0003.85,0003.47
2021-11-20 03:36:00,,0824.1,4.99,0.00,27.0,26.1,00.0,36.0,28.7,10.9,0000.0,0007.43,0003.88,0003.49
2021-11-20 03:37:00,,0824.2,4.99,0.00,27.0,26.1,00.0,36.0,28.7,10.9,0000.0,0006.40,0003.90,0003.52
2021-11-20 03:38:00,,0824.2,5.01,0.00,26.9,26.1,00.0,36.0,28.7,10.9,0000.0,0006.34,0003.94,0003.54
2021-11-20 03:39:00,,0824.1,4.99,0.00,26.9,26.1,00.0,36.0,28.7,11.0,0000.0,0006.68,0003.98,0003.56
2021-11-20 03:40:00,,0824.1,5.00,0.00,26.9,26.0,00.0,36.0,28.7,11.0,0000.0,0007.00,0004.05,0003.58
2021-11-20 03:41:00,,0824.1,4.99,0.00,26.9,26.0,00.0,36.0,28.7,11.0,0000.0,0007.04,0004.08,0003.60
2021-11-20 03:42:00,,0824.1,5.00,0.00,26.9,26.1,00.0,35.9,28.7,10.9,0000.0,0007.06,0004.07,0003.60
2021-11-20 03:43:00,,0824.1,4.99,0.00,26.9,26.1,00.0,35.9,28.7,10.8,0000.0,0007.30,0004.10,0003.60
2021-11-20 03:44:00,,0824.1,5.00,0.00,26.9,26.1,00.0,35.9,28.7,10.7,0000.0,0007.39,0004.13,0003.62
2021-11-20 03:45:00,,0824.1,5.00,0.00,26.9,26.1,00.0,35.9,28.7,10.7,0000.0,0007.33,0004.11,0003.62
2021-11-20 03:46:00,,0824.0,5.00,0.00,26.9,26.1,00.0,35.9,28.7,10.4,0000.0,0007.71,0004.09,0003.61
2021-11-20 03:47:00,,0824.0,5.01,0.00,26.9,26.1,00.0,35.9,28.7,10.4,0000.0,0008.24,0004.08,0003.58
2021-11-20 03:48:00,,0824.0,4.98,0.00,26.9,26.1,00.0,35.9,28.7,10.4,0000.0,0008.25,0004.07,0003.57
2021-11-20 03:49:00,,0824.1,5.00,0.00,26.9,26.1,00.0,35.9,28.7,10.6,0000.0,0008.18,0004.05,0003.56
2021-11-20 03:50:00,,0824.1,5.00,0.00,26.9,26.1,00.0,35.9,28.7,10.4,0000.0,0008.04,0004.03,0003.55
2021-11-20 03:51:00,,0824.1,5.01,0.00,26.9,26.0,00.0,35.9,28.6,10.3,0000.0,0008.12,0004.01,0003.52
2021-11-20 03:52:00,,0824.0,5.00,0.00,26.8,26.0,00.0,35.9,28.6,10.4,0000.0,0008.15,0003.99,0003.51
2021-11-20 03:53:00,,0824.0,5.01,0.00,26.8,26.0,00.0,35.9,28.6,10.4,0000.0,0008.17,0003.98,0003.49
2021-11-20 03:54:00,,0824.0,4.99,0.00,26.8,26.0,00.0,35.9,28.6,10.4,0000.0,0008.12,0003.96,0003.48
2021-11-20 03:55:00,,0824.0,5.00,0.00,26.8,26.0,00.0,35.9,28.6,10.4,0000.0,0008.02,0003.91,0003.46
2021-11-20 03:56:00,,0824.1,5.00,0.00,26.8,26.0,00.0,35.9,28.6,10.3,0000.0,0007.91,0003.87,0003.43
2021-11-20 03:57:00,,0824.1,5.00,0.00,26.8,26.0,00.0,35.9,28.6,10.3,0000.0,0007.72,0003.84,0003.41
2021-11-20 03:58:00,,0824.1,5.00,0.00,26.8,26.0,00.0,35.8,28.6,10.4,0000.0,0006.55,0003.82,0003.41
2021-11-20 03:59:00,,0824.0,5.01,0.00,26.8,25.9,00.0,35.8,28.6,10.6,0000.0,0006.48,0003.82,0003.42
